This is the latest recevied weather packets stored in our database for station/object KM4RT-13. If no packets are shown the sender has not sent any weather packets the latest 10 day(s).
| Time | Temp. | Humidity | Pressure | Rain* | Wind** | Luminosity | Snow |
|---|---|---|---|---|---|---|---|
| 1778048498 | 12.78° C | 99% | 1005.2 hPa | 42.67 mm | - | 0 W/m² | - |
| 1778048193 | 13.33° C | 99% | 1005.7 hPa | 85.09 mm | - | 0 W/m² | - |
| 1778047891 | 13.89° C | 99% | 1005.6 hPa | 66.55 mm | - | 0 W/m² | - |
| 1778047590 | 14.44° C | 99% | 1005.7 hPa | 6.1 mm | - | 0 W/m² | - |
| 1778047286 | 14.44° C | 99% | 1004.7 hPa | 4.83 mm | - | 0 W/m² | - |
| 1778046984 | 14.44° C | 97% | 1004 hPa | 4.83 mm | - | 0 W/m² | - |
| 1778046680 | 16.67° C | 94% | 1004.7 hPa | 1.78 mm | - | 0 W/m² | - |
| 1778046377 | 20.56° C | 93% | 1003.8 hPa | 0 mm | - | 0 W/m² | - |
| 1778046073 | 20.56° C | 93% | 1003.2 hPa | 0 mm | - | 0 W/m² | - |
| 1778045771 | 21.11° C | 93% | 1003.1 hPa | 0 mm | - | 0 W/m² | - |
| 1778045470 | 20.56° C | 92% | 1003.2 hPa | 0 mm | - | 0 W/m² | - |
| 1778045167 | 20.56° C | 93% | 1003.4 hPa | 0 mm | - | 0 W/m² | - |
| 1778044865 | 20° C | 96% | 1003.8 hPa | 0 mm | - | 0 W/m² | - |
| 1778044562 | 20° C | 96% | 1003.7 hPa | 0 mm | - | 0 W/m² | - |
| 1778044258 | 20° C | 96% | 1003.8 hPa | 0 mm | - | 0 W/m² | - |
| 1778043956 | 20° C | 96% | 1003.9 hPa | 0 mm | - | 0 W/m² | - |
| 1778043653 | 20° C | 95% | 1003.9 hPa | 0 mm | - | 0 W/m² | - |
| 1778043350 | 20° C | 95% | 1003.8 hPa | 0 mm | - | 0 W/m² | - |
| 1778043047 | 20° C | 94% | 1004 hPa | 0 mm | - | 0 W/m² | - |
| 1778042745 | 20° C | 94% | 1004.2 hPa | 0 mm | - | 0 W/m² | - |
| 1778042441 | 20° C | 94% | 1004.2 hPa | 0 mm | - | 0 W/m² | - |
| 1778042138 | 20.56° C | 93% | 1004.5 hPa | 0 mm | - | 0 W/m² | - |
| 1778041837 | 20.56° C | 93% | 1004.1 hPa | 0 mm | - | 0 W/m² | - |
| 1778041535 | 20.56° C | 93% | 1004.3 hPa | 0 mm | - | 0 W/m² | - |
| 1778041233 | 20° C | 94% | 1004.1 hPa | 0 mm | - | 0 W/m² | - |
* Rain latest hour (hover to see other rain measurements)
** Current wind speed in m/s (hover to see current wind gust speed)